#timestamp,LO_Frequency,Hit 
1500368415.3,286046893.0,N
1500368435.2,286046892.9,N
1500368455.9,286046892.5,N
1500368475.7,286046893.3,N
1500368495.6,286046891.5,N
1500368515.4,286046889.3,N
1500368535.2,286046891.0,N
1500368555.1,286046891.2,N
1500368556.0,286046891.2,N
1500368575.8,286046893.9,N
1500368595.6,286046893.1,N
1500368615.4,286046893.9,N
1500368635.3,286046892.0,N
1500368655.1,286046889.8,N
1500368675.8,286046892.4,N
1500368695.7,286046891.8,N
1500368715.5,286046888.0,N
1500368735.3,286046886.1,N
1500368755.2,286046889.1,N
1500368775.0,286046888.9,N
1500368775.9,286046888.9,N
1500368795.7,286046886.1,N
1500368815.6,286046886.6,N
1500368835.4,286046886.4,N
1500368855.2,286046887.3,N
1500368875.1,286046887.1,N
1500368876.0,286046887.1,N
1500368895.8,286046885.8,N
1500368915.6,286046883.8,N
1500368935.5,286046883.7,N
1500368955.3,286046881.9,N
1500368975.1,286046882.0,N
1500368995.9,286046879.8,N
1500369015.7,286046879.9,N
1500369035.5,286046880.0,N
1500369055.4,286046882.4,N
1500369075.2,286046881.3,N
1500369095.0,286046882.2,N
1500369095.9,286046882.2,N
1500369115.8,286046882.7,N
1500369135.6,286046880.9,N
1500369155.4,286046878.5,N
1500369175.3,286046880.5,N
1500369195.1,286046879.0,N
1500369196.0,286046879.0,N
1500369215.8,286046879.4,N
1500369235.7,286046877.1,N
1500369255.5,286046878.0,N
1500369275.3,286046875.1,N
1500369295.2,286046876.9,N
1500369315.9,286046879.4,N
1500369335.7,286046875.0,N
1500369355.5,286046876.9,N
1500369375.4,286046878.9,N
1500369395.2,286046877.5,N
1500369415.0,286046876.3,N
1500369415.9,286046876.3,N
1500369435.8,286046875.5,N
1500369455.6,286046875.2,N
1500369475.4,286046875.9,N
1500369495.3,286046875.7,N
1500369515.1,286046876.0,N
1500369535.8,286046874.3,N
1500369555.7,286046874.4,N
1500369575.5,286046874.6,N
1500369595.3,286046874.2,N
1500369615.2,286046875.9,N
1500369635.9,286046874.7,N
1500369655.7,286046874.4,N
1500369675.6,286046870.9,N
1500369695.4,286046872.4,N
1500369715.2,286046870.2,N
1500369735.1,286046871.2,N
1500369736.0,286046871.2,N
1500369755.8,286046868.8,N
1500369775.6,286046867.0,N
1500369795.5,286046868.6,N
1500369815.3,286046871.2,N
1500369835.1,286046870.3,N
1500369855.9,286046871.4,N
1500369875.7,286046869.4,N
1500369895.5,286046870.0,N
1500369915.4,286046868.1,N
1500369935.2,286046865.8,N
1500369955.0,286046868.0,N
1500369955.9,286046868.0,N
1500369975.8,286046867.8,N
1500369995.6,286046867.0,N
1500370015.4,286046867.4,N
1500370035.3,286046865.3,N
1500370055.1,286046865.6,N
1500370056.0,286046865.6,N
1500370075.8,286046864.0,N
1500370095.7,286046865.0,N
1500370115.5,286046862.6,N
1500370135.3,286046863.1,N
1500370155.1,286046863.4,N
1500370175.9,286046864.9,N
1500370195.7,286046863.7,N
1500370215.5,286046864.3,N
1500370235.4,286046864.7,N
1500370255.2,286046865.2,N
1500370275.0,286046862.4,N
1500370275.9,286046862.4,N
1500370295.8,286046861.5,N
1500370315.6,286046861.3,N
1500370335.4,286046860.6,N
1500370355.3,286046860.8,N
1500370375.1,286046859.4,N
1500370395.8,286046860.3,N
1500370415.7,286046858.7,N
1500370435.5,286046858.1,N
1500370455.3,286046858.4,N
1500370475.2,286046857.0,N
1500370495.9,286046858.0,N
1500370515.7,286046857.5,N
1500370535.6,286046860.2,N
1500370555.4,286046859.9,N
1500370575.2,286046859.9,N
1500370595.1,286046858.3,N
1500370596.0,286046858.3,N
1500370615.8,286046856.3,N
1500370635.6,286046856.4,N
1500370655.5,286046854.6,N
1500370675.3,286046852.6,N
1500370695.1,286046852.6,N
1500370715.9,286046854.5,N
1500370735.7,286046852.9,N
1500370755.5,286046855.3,N
1500370775.3,286046854.4,N
1500370795.2,286046854.6,N
1500370815.0,286046855.5,N
1500370815.9,286046855.5,N
1500370835.7,286046853.7,N
1500370855.6,286046855.1,N
1500370875.4,286046855.1,N
1500370895.2,286046852.6,N
1500370915.1,286046855.6,N
1500370916.0,286046855.6,N
1500370935.8,286046855.0,N
1500370955.6,286046853.6,N
1500370975.5,286046853.2,N
1500370995.3,286046852.1,N
1500371015.1,286046850.5,N
1500371035.9,286046852.0,N
1500371055.7,286046852.0,N
1500371075.5,286046852.2,N
1500371095.4,286046851.9,N
1500371115.2,286046849.3,N
1500371135.0,286046850.7,N
1500371135.9,286046850.7,N
1500371155.8,286046850.2,N
1500371175.6,286046850.5,N
1500371195.4,286046850.3,N
1500371215.3,286046849.5,N
1500371235.1,286046849.6,N
1500371236.0,286046849.6,N
1500371255.8,286046850.1,N
1500371275.7,286046848.1,N
1500371295.5,286046848.9,N
1500371315.3,286046846.5,N
1500371335.2,286046847.1,N
1500371355.9,286046847.2,N
1500371375.7,286046847.3,N
1500371395.6,286046846.7,N
1500371415.4,286046847.3,N
1500371435.2,286046844.9,N
1500371455.1,286046845.6,N
1500371456.0,286046845.6,N
1500371475.8,286046847.6,N
1500371495.6,286046845.5,N
1500371515.4,286046843.7,N
1500371535.3,286046842.0,N
1500371555.1,286046843.7,N
1500371575.8,286046842.9,N
1500371595.7,286046845.1,N
1500371615.5,286046845.6,N
1500371635.3,286046845.6,N
1500371655.2,286046844.3,N
1500371675.0,286046844.0,N
1500371675.9,286046844.0,N
1500371695.7,286046841.3,N
1500371715.6,286046841.9,N
1500371735.4,286046842.2,N
1500371755.2,286046841.9,N
1500371775.1,286046842.6,N
1500371776.0,286046842.6,N
1500371795.8,286046842.8,N
1500371815.6,286046840.4,N
1500371835.5,286046841.0,N
1500371855.3,286046841.0,N
1500371875.1,286046839.1,N
1500371895.9,286046838.6,N
1500371915.7,286046839.6,N
1500371935.5,286046838.5,N
1500371955.4,286046838.1,N
1500371975.2,286046838.1,N
1500371995.0,286046838.3,N
1500371995.9,286046838.3,N
